Location: Casaglia
(44.0333°N, 11.5167°E)
Time: 12:40:58
(UTC+00:00)

STARLINK-1310 - Pass Details

Date: 07 June 2020
Orbit: 548 x 551 km, 53.0° (Epoch: 02 July)

Event Time Altitude Azimuth Distance (km) Brightness Sun altitude
Exits shadow 23:12:11 - 92° (E) 2,302 6.8 -23.2°
Enters shadow 00:13:24 -62° 231° (SW) 11,838 10.3 -21.8°
Maximum altitude 00:48:11 51° 139° (SE) 690 3.9 -19.7°
